Location: Bergen
(60.3910°N, 5.3250°E)
Time: 04:14:24
(UTC+02:00)

ISS - Pass Details

Date: 27 September 2021
Orbit: 417 x 423 km, 51.6° (Epoch: 22 October)

Event Time Altitude Azimuth Distance (km) Brightness Sun altitude
Rises 20:09:14 0° 245° (WSW) 2,363 1.1 -6.6°
Reaches altitude 10° 20:11:43 10° 227° (SW) 1,501 -0.4 -6.9°
Maximum altitude 20:14:10 19° 180° (S) 1,075 -1.8 -7.2°
Drops below altitude 10° 20:16:38 10° 133° (SE) 1,503 -1.4 -7.5°
Enters shadow 20:17:12 - 127° (SE) 1,684 -1.2 -7.5°
